Location: Passau
(48.5830°N, 13.4830°E)
Time: 20:07:15
(UTC+02:00)

S-56A Canister/Altair - Visible Passes

Search period start: 27 May 2024 00:00
Search period end: 06 June 2024 00:00
Orbit: 638 x 2488 km, 38.9° (Epoch: 26 May)

Date Brightness Start Highest point End Pass type
(mag) Time Alt. Az. Time Alt. Az. Time Alt. Az.
27 May 10.9 04:22:42 10° SSW 04:33:34 26° SE 04:42:45 10° E visible
28 May 11.0 03:49:01 10° S 03:59:33 24° SE 04:08:44 10° E visible
29 May 11.0 03:15:29 10° S 03:25:31 22° SE 03:34:33 10° E visible
30 May 11.1 02:42:57 11° S 02:51:29 20° SE 03:00:10 10° E visible
31 May 11.1 02:10:41 12° SSE 02:17:29 18° SE 02:25:30 10° E visible
31 May 10.5 04:08:33 10° SSW 04:21:37 38° SSE 04:32:44 10° E visible
01 Jun 11.1 01:38:21 12° SSE 01:43:31 15° SE 01:50:29 10° ESE visible
01 Jun 10.6 03:35:39 13° SSW 03:47:26 36° SSE 03:58:47 10° E visible
02 Jun 11.2 01:05:56 11° SE 01:09:36 13° SE 01:14:53 10° ESE visible
02 Jun 10.6 03:03:14 16° SSW 03:13:15 34° SSE 03:24:43 10° E visible
03 Jun 11.3 00:34:17 10° SE 00:35:44 10° SE 00:37:12 10° ESE visible
03 Jun 10.7 02:30:44 19° S 02:39:04 31° SE 02:50:32 10° E visible
04 Jun 10.7 01:58:10 20° S 02:04:56 29° SE 02:16:11 10° E visible
04 Jun 10.3 03:55:35 10° SW 04:09:37 49° SSE 04:22:01 10° E visible
05 Jun 10.7 01:25:30 21° SSE 01:30:50 26° SE 01:41:41 10° E visible
05 Jun 10.3 03:22:46 14° SW 03:35:18 47° SSE 03:48:02 10° E visible
